Location: Dobrzeń Wielki
(50.7693°N, 17.8414°E)
Time: 05:46:41
(UTC+01:00)

Envisat - Pass Details

Date: 22 October 2019
Orbit: 764 x 766 km, 98.1° (Epoch: 13 November)

Event Time Altitude Azimuth Distance (km) Brightness Sun altitude
Rises 19:56:27 0° 203° (SSW) 3,222 6.4 -21.7°
Reaches altitude 10° 19:59:14 10° 219° (SW) 2,301 5.8 -22.2°
Maximum altitude 20:03:09 22° 270° (W) 1,622 5.5 -22.8°
Drops below altitude 10° 20:07:06 10° 320° (NW) 2,314 6.1 -23.4°
Sets 20:09:55 0° 336° (NNW) 3,246 6.7 -23.8°
